Location: Kalberh�ni
(46.4610°N, 7.2453°E)
Time: 21:54:10
(UTC+00:00)

Cosmos 1802 Rocket - Pass Details

Date: 27 October 2021
Orbit: 955 x 1010 km, 82.9° (Epoch: 30 November)

Event Time Altitude Azimuth Distance (km) Brightness Sun altitude
Rises 04:31:57 0° 0° (N) 3,684 7.0 -16.6°
Reaches altitude 10° 04:35:05 10° 15° (NNE) 2,741 6.5 -16.1°
Maximum altitude 04:39:54 23° 66° (ENE) 1,985 6.4 -15.3°
Drops below altitude 10° 04:44:45 10° 116° (ESE) 2,758 7.5 -14.4°
Sets 04:47:53 0° 131° (SE) 3,712 8.0 -13.9°
